Location: *
(48.8489°N, 2.3218°E)
Time: 12:05:17
(UTC+00:00)

CARTOSAT-1 - Pass Details

Date: 23 August 2019
Orbit: 617 x 618 km, 97.8° (Epoch: 22 September)

Event Time Altitude Azimuth Distance (km) Brightness Sun altitude
Exits shadow 21:12:36 51° 123° (ESE) 779 3.6 -20.2°
Maximum altitude 21:13:26 64° 73° (ENE) 692 3.6 -20.3°
Drops below altitude 10° 21:17:43 10° 352° (N) 1,995 7.0 -20.8°
Sets 21:19:56 0° 350° (N) 2,906 8.0 -21.0°
